RADUGA 32 1 23448U 94087A 12036.51935232 -.00000138 00000-0 10000-3 0 4678 2 23448 012.1874 041.2568 0004046 127.2746 232.8327 01.00265906 80346 RADUGA 1-4 1 25642U 99010A 12035.51542073 -.00000266 00000-0 10000-3 0 5575 2 25642 011.0695 055.5074 0002529 131.2288 228.8722 01.00203793 47379 RADUGA 1-5 1 26477U 00049A 12036.79212294 -.00000208 00000-0 10000-3 0 2940 2 26477 008.6927 055.2005 0003415 325.5359 125.4003 01.00336040 41896 RADUGA 1-6 1 26936U 01045A 12032.72211426 -.00000095 +00000-0 +10000-3 0 02845 2 26936 008.0382 059.9713 0016585 055.7783 304.4414 00.97744682037279 RADUGA 1-7 1 28194U 04010A 12036.72819972 .00000148 00000-0 10000-3 0 5506 2 28194 006.1175 069.0504 0000829 309.9354 050.1629 01.00210685 28806 RADUGA 1M-1 1 32373U 07058A 12036.90986407 -.00000039 00000-0 10000-3 0 2072 2 32373 000.0458 243.0405 0002309 068.6877 221.2425 01.00271653 16135